FLOCK 4Y 16

导读

FLOCK 4Y 16是美国Planet公司于2023年1月3日发射的一颗SuperDove商业遥感卫星,属于FLOCK 4Y批次36颗卫星组网中的一员,补网增强Planet的Dove遥感星座。卫星配备八个光谱波段,可提供高分辨率光学影像,服务农业、林业、环境监测、测绘等领域,能快速向全球客户交付高质量对地观测数据,助力行业决策与地理信息更新。

基本信息
目录编号:
55040
目录名称:
FLOCK 4Y 16
国际标识:
2023-001AH
轨道中心:
EARTH
卫星名称:
FLOCK 4Y 16
卫星全名:
--
卫星状态:
已陨落 最后检测时间 2025-06-28
发射日期:
2023-01-03 UTC
国别 :
美国 (US)
星等 :
--
轨道信息
数据来源 国际轨道数据
星历时间: 2025-06-23T02:57:44+0800
轨道信息已过期354天
半长轴: 6529.885km
偏心率: 0.0018522
轨道倾角: 97.338°
近地点辐角 269.396°
升交点赤经 250.727°
平近点角 90.522°
近地点: 139.655km
远地点: 163.845km
周期: 87.522分钟
每日圈数: 16.452978
详细信息
使用方式:
暂无